Home > Weather > Porto Acre > Past weeks

Flag for Brazil Past Weather in Porto Acre, Acre, Brazil — Yesterday and Last 2 Weeks

Now
66 °F

Passing clouds.


Feels Like: 66 °F
Forecast: 65 / 89 °F
Wind: No wind

Location: Rio Branco Airport

Current Time: May 25, 2016 at 4:10:51 AM

Latest Report: May 25, 2016 at 3:00 AM


Visibility: N/A

Pressure: 30.01 "Hg

Humidity: 100%

Dew Point: 66 °F

Location of Porto AcreLocation

Past Weather in Porto Acre — Graph

°F

Porto Acre Temperature Yesterday

Maximum temperature yesterday: 81 °F (at 1:00 PM)
Minimum temperature yesterday: 61 °F (at 4:00 AM)
Average temperature yesterday: 71 °F

High & Low Weather Summary for the Past Weeks

 TemperatureHumidityPressure
High90 °F (May 10, 2:00 PM)100% (May 10, 2:00 AM)30.15 "Hg (May 10, 2:00 AM)
Low61 °F (May 24, 4:00 AM)57% (May 24, 11:00 AM)29.80 "Hg (May 10, 4:00 PM)
Average76 °F89%29.97 "Hg
* Reported May 10 2:00 AM — May 25 2:00 AM, Porto Acre, Weather by CustomWeather, © 2016

Note: Actual official high and low records may vary slightly from our data, if they occured in-between our weather recording intervals... More about our weather records

Advertising

Porto Acre Weather History for the Previous 24 Hours

Scroll right to see more
 ConditionsComfort  
Time TempWeatherWind HumidityBarometerVisibility
2:00 AM
Wed, May 25
68 °FPassing clouds.2 mph94%30.01 "HgN/A
1:00 AM70 °FPassing clouds.2 mph88%30.04 "HgN/A
12:00 AM72 °FPassing clouds.3 mph88%30.04 "HgN/A
11:00 PM
Tue, May 24
72 °FClear.2 mph88%30.07 "Hg10 mi
10:00 PM72 °FClear.No wind88%30.07 "Hg10 mi
9:00 PM72 °FPassing clouds.3 mph88%30.07 "HgN/A
8:00 PM72 °FPassing clouds.3 mph94%30.04 "HgN/A
7:00 PM73 °FPassing clouds.2 mph89%30.04 "HgN/A
6:00 PM75 °FPassing clouds.2 mph83%30.01 "HgN/A
5:00 PM79 °FPartly sunny.3 mph70%30.01 "HgN/A
4:00 PM81 °FSunny.6 mph62%30.01 "Hg10 mi
3:00 PM81 °FSunny.6 mph62%30.01 "Hg10 mi
2:00 PM81 °FSunny.7 mph62%30.04 "Hg10 mi
1:00 PM81 °FSunny.6 mph58%30.07 "Hg10 mi
12:00 PM79 °FSunny.6 mph58%30.09 "Hg10 mi
11:00 AM77 °FSunny.10 mph57%30.12 "Hg10 mi
10:00 AM73 °FSunny.9 mph65%30.15 "Hg10 mi
9:00 AM72 °FSunny.7 mph69%30.15 "Hg10 mi
8:00 AM66 °FSunny.8 mph78%30.15 "Hg10 mi
7:00 AM64 °FSunny.6 mph88%30.12 "Hg10 mi
6:00 AM61 °FSunny.2 mph100%30.09 "Hg10 mi
5:00 AM61 °FClear.3 mph100%30.09 "Hg10 mi
4:00 AM61 °FClear.6 mph100%30.07 "Hg10 mi
Weather by CustomWeather, © 2016

See weather overviewHow to use our weather pages